EW7349 Garrisonville VA US current weather conditions

sailwx.info

Wind from 061

Air temperature 24.4° C
Dewpoint 20.8° C

Last reported at 2020-Aug-06 01:05 UTC.
Time now 2020-Aug-06 01:43 UTC

Location: N 38°32' W 077°34'.
View on Google Maps.

See reports from other nearby stations

  
Tides and Currents Weather Stations Pressure Air Temp Water Temp Dewpoint Dewpoint Depression Visibility Wind Speed Wind Dir Waves Ship Positions
date/time (UTC)wind fromknots sea level pressurealtimeterstation pressurevisibilityair tempwater tempwave heightnotes
2020-Aug-06 01:05 061 24.4
2020-Aug-06 01:00 061 25.0
2020-Aug-06 00:55 061 25.0
2020-Aug-06 00:50 061 25.0
2020-Aug-06 00:45 061 25.0
2020-Aug-06 00:40 061 25.6
2020-Aug-06 00:35 061 25.6
2020-Aug-06 00:30 061 25.6
2020-Aug-06 00:25 061 26.1
2020-Aug-06 00:20 061 26.1
2020-Aug-06 00:15 061 26.1
2020-Aug-06 00:10 061 26.1
2020-Aug-06 00:05 061 26.7
2020-Aug-06 00:00 061 26.7
2020-Aug-05 23:55 061 26.7
2020-Aug-05 23:50 061 26.7
2020-Aug-05 23:45 061 27.2
2020-Aug-05 23:40 061 27.2
2020-Aug-05 23:35 061 27.8
2020-Aug-05 23:25 061 27.8
2020-Aug-05 23:20 061 28.3
2020-Aug-05 23:15 061 28.3
2020-Aug-05 23:10 061 28.3
2020-Aug-05 23:05 061 28.9
2020-Aug-05 23:00 061 0 gusting 1 28.9
2020-Aug-05 22:55 061 0 gusting 1 28.9
2020-Aug-05 22:50 061 0 gusting 1 28.9
2020-Aug-05 22:45 061 0 gusting 1 28.9
2020-Aug-05 22:40 061 0 gusting 1 29.4
2020-Aug-05 22:35 061 0 gusting 1 29.4
2020-Aug-05 22:29 061 0 gusting 1 29.4
2020-Aug-05 22:24 061 0 gusting 1 29.4
2020-Aug-05 22:19 061 0 gusting 1 29.4
2020-Aug-05 22:14 061 30.0
2020-Aug-05 22:09 061 0 gusting 1 30.0
2020-Aug-05 22:04 061 0 gusting 1 30.0
2020-Aug-05 21:59 061 0 gusting 1 30.0
2020-Aug-05 21:54 052 30.0
2020-Aug-05 21:49 052 0 gusting 1 30.0
2020-Aug-05 21:44 052 0 gusting 2 30.6
2020-Aug-05 21:39 052 0 gusting 2 30.6
2020-Aug-05 21:34 109 0 gusting 2 31.1
2020-Aug-05 21:29 129 0 gusting 2 31.1
2020-Aug-05 21:24 129 0 gusting 2 31.7
2020-Aug-05 21:19 195 0 gusting 1 31.7
2020-Aug-05 21:14 162 0 gusting 2 31.7
2020-Aug-05 21:09 123 0 gusting 3 31.7
2020-Aug-05 21:04 355 0 gusting 3 31.7
2020-Aug-05 20:59 063 0 gusting 2 31.7
2020-Aug-05 20:54 099 0 gusting 1 31.7
2020-Aug-05 20:49 103 0 gusting 2 31.7
2020-Aug-05 20:44 103 1 gusting 2 31.7
2020-Aug-05 20:39 105 0 gusting 2 32.2
2020-Aug-05 20:34 133 0 gusting 2 32.2
2020-Aug-05 20:29 140 0 gusting 2 32.2
2020-Aug-05 20:24 183 0 gusting 2 31.7
2020-Aug-05 20:19 172 0 gusting 1 31.7
2020-Aug-05 20:14 103 0 gusting 2 31.1
2020-Aug-05 20:09 202 0 gusting 2 31.1
2020-Aug-05 20:04 206 0 gusting 1 31.1
2020-Aug-05 19:59 206 0 gusting 1 31.1
2020-Aug-05 19:54 206 0 gusting 1 31.1
2020-Aug-05 19:49 207 31.1
2020-Aug-05 19:44 207 31.1
2020-Aug-05 19:39 207 0 gusting 3 31.1
2020-Aug-05 19:34 209 0 gusting 3 31.1
2020-Aug-05 19:29 289 0 gusting 1 31.1
2020-Aug-05 19:24 290 0 gusting 1 31.7
2020-Aug-05 19:19 228 0 gusting 2 31.7
2020-Aug-05 19:14 228 0 gusting 2 31.7
2020-Aug-05 19:09 141 0 gusting 1 31.1
2020-Aug-05 19:04 350 0 gusting 2 30.6
2020-Aug-05 18:59 320 0 gusting 2 30.6
2020-Aug-05 18:54 290 0 gusting 2 30.6
2020-Aug-05 18:49 256 0 gusting 1 31.1
2020-Aug-05 18:44 256 0 gusting 1 31.7
2020-Aug-05 18:39 256 0 gusting 2 31.7
2020-Aug-05 18:34 254 1 gusting 3 31.7
2020-Aug-05 18:29 261 1 gusting 3 31.7
2020-Aug-05 18:24 218 1 gusting 4 31.7
2020-Aug-05 18:18 228 0 gusting 4 32.2
2020-Aug-05 18:13 219 0 gusting 2 31.7
2020-Aug-05 18:08 220 0 gusting 3 32.2
2020-Aug-05 18:03 248 1 gusting 4 31.7
2020-Aug-05 17:58 265 2 gusting 4 31.7
2020-Aug-05 17:53 218 1 gusting 3 31.7
2020-Aug-05 17:48 050 1 gusting 2 32.2
2020-Aug-05 17:43 225 0 gusting 2 32.2
2020-Aug-05 17:38 179 0 gusting 2 32.8
2020-Aug-05 17:33 194 0 gusting 3 32.2
2020-Aug-05 17:28 194 0 gusting 3 32.2
2020-Aug-05 17:23 200 0 gusting 2 32.2
2020-Aug-05 17:18 211 1 gusting 5 31.7
2020-Aug-05 17:13 034 1 gusting 5 32.2
2020-Aug-05 17:08 190 0 gusting 2 32.2
2020-Aug-05 17:03 349 0 gusting 2 32.2
2020-Aug-05 16:58 267 1 gusting 2 31.7
2020-Aug-05 16:53 094 0 gusting 2 31.7
2020-Aug-05 16:48 098 0 gusting 2 32.2
2020-Aug-05 16:43 192 0 gusting 2 32.2
2020-Aug-05 16:38 222 0 gusting 2 31.7
2020-Aug-05 16:33 228 1 gusting 2 31.1
2020-Aug-05 16:28 135 1 gusting 4 31.1
2020-Aug-05 16:23 083 0 gusting 4 31.1
2020-Aug-05 16:18 015 0 gusting 3 31.1
2020-Aug-05 16:13 31.1
2020-Aug-05 16:08 089 1 gusting 3 31.1
2020-Aug-05 16:03 056 1 gusting 3 31.1
2020-Aug-05 15:58 053 1 gusting 2 30.6
2020-Aug-05 15:53 065 0 gusting 2 31.1
2020-Aug-05 15:48 304 0 gusting 2 30.6
2020-Aug-05 15:43 132 0 gusting 2 30.0
2020-Aug-05 15:38 070 0 gusting 2 29.4
2020-Aug-05 15:33 047 0 gusting 2 29.4
2020-Aug-05 15:28 048 1 gusting 2 29.4
2020-Aug-05 15:23 036 1 gusting 2 29.4
2020-Aug-05 15:18 087 1 gusting 3 29.4
2020-Aug-05 15:13 055 1 gusting 3 28.9
2020-Aug-05 15:08 094 1 gusting 4 28.9
2020-Aug-05 15:03 094 1 gusting 4 28.9
2020-Aug-05 14:58 167 0 gusting 2 28.9
2020-Aug-05 14:53 174 0 gusting 2 28.3
2020-Aug-05 14:48 005 0 gusting 2 27.8
2020-Aug-05 14:43 279 0 gusting 3 27.8
2020-Aug-05 14:38 055 0 gusting 3 27.2
2020-Aug-05 14:33 203 0 gusting 3 26.7
2020-Aug-05 14:28 049 1 gusting 3 26.7
2020-Aug-05 14:23 052 1 gusting 3 26.1
2020-Aug-05 14:18 051 0 gusting 2 26.1
2020-Aug-05 14:13 041 0 gusting 2 25.6
2020-Aug-05 14:08 041 0 gusting 2 25.6
2020-Aug-05 14:03 064 0 gusting 2 25.0
2020-Aug-05 13:58 064 0 gusting 2 24.4
2020-Aug-05 13:53 005 0 gusting 2 24.4
2020-Aug-05 13:48 257 0 gusting 2 23.9
2020-Aug-05 13:43 042 1 gusting 3 23.9
2020-Aug-05 13:38 079 0 gusting 3 23.3
2020-Aug-05 13:33 054 0 gusting 2 23.3
2020-Aug-05 13:28 064 0 gusting 3 22.8
2020-Aug-05 13:23 047 0 gusting 3 22.2
2020-Aug-05 13:17 042 0 gusting 2 22.2
2020-Aug-05 13:12 041 0 gusting 2 21.7
2020-Aug-05 13:07 041 0 gusting 2 21.7
2020-Aug-05 13:02 355 0 gusting 1 21.1
2020-Aug-05 12:57 351 21.1
2020-Aug-05 12:52 121 20.6
2020-Aug-05 12:47 121 20.6
2020-Aug-05 12:42 121 20.6
2020-Aug-05 12:37 121 20.0
2020-Aug-05 12:32 121 20.0
2020-Aug-05 12:27 121 20.0
2020-Aug-05 12:22 121 19.4
2020-Aug-05 12:17 121 19.4
2020-Aug-05 12:12 121 19.4
2020-Aug-05 12:07 121 19.4
2020-Aug-05 12:02 121 19.4
2020-Aug-05 11:57 121 19.4
2020-Aug-05 11:52 121 19.4
2020-Aug-05 11:47 121 19.4
2020-Aug-05 11:42 121 18.9
2020-Aug-05 11:37 121 18.9
2020-Aug-05 11:32 121 18.9
2020-Aug-05 11:27 121 18.9
2020-Aug-05 11:22 121 18.9
2020-Aug-05 11:17 121 18.9
2020-Aug-05 11:12 121 18.9
2020-Aug-05 11:07 121 18.9
2020-Aug-05 11:02 121 18.9
2020-Aug-05 10:57 121 18.9
2020-Aug-05 10:52 121 18.9
2020-Aug-05 10:47 121 18.9
2020-Aug-05 10:41 121 18.9
2020-Aug-05 10:36 121 18.9
2020-Aug-05 10:31 121 18.9
2020-Aug-05 10:26 121 18.9
2020-Aug-05 10:21 121 18.9
2020-Aug-05 10:16 121 18.9
2020-Aug-05 10:11 121 18.9
2020-Aug-05 10:06 121 18.9
2020-Aug-05 10:01 121 18.9
2020-Aug-05 09:56 121 18.9
2020-Aug-05 09:51 121 18.9
2020-Aug-05 09:46 121 18.9
2020-Aug-05 09:41 121 18.9
2020-Aug-05 09:36 121 18.9
2020-Aug-05 09:31 121 19.4
2020-Aug-05 09:26 121 19.4
2020-Aug-05 09:21 121 19.4
2020-Aug-05 09:16 121 19.4
2020-Aug-05 09:11 121 19.4
2020-Aug-05 09:06 121 19.4
2020-Aug-05 09:01 121 19.4
2020-Aug-05 08:56 121 19.4
2020-Aug-05 08:51 121 19.4
2020-Aug-05 08:46 121 19.4
2020-Aug-05 08:41 121 19.4
2020-Aug-05 08:36 121 20.0
2020-Aug-05 08:31 121 20.0
2020-Aug-05 08:26 121 20.0
2020-Aug-05 08:21 121 20.0
2020-Aug-05 08:16 121 20.0
2020-Aug-05 08:11 121 20.0
2020-Aug-05 08:06 121 20.0
2020-Aug-05 08:01 121 20.6
2020-Aug-05 07:56 121 20.6
2020-Aug-05 07:51 121 20.6
2020-Aug-05 07:46 121 20.6
2020-Aug-05 07:40 121 20.6
2020-Aug-05 07:35 121 20.6
2020-Aug-05 07:30 121 20.6
2020-Aug-05 07:25 121 20.6
2020-Aug-05 07:20 121 20.6
2020-Aug-05 07:15 121 20.6
2020-Aug-05 07:10 121 20.6
2020-Aug-05 07:05 121 21.1
2020-Aug-05 07:00 121 21.1
2020-Aug-05 06:55 121 21.1
2020-Aug-05 06:50 121 21.1
2020-Aug-05 06:45 121 21.1
2020-Aug-05 06:40 121 21.1
2020-Aug-05 06:35 121 21.1
2020-Aug-05 06:30 121 21.7
2020-Aug-05 06:25 121 21.7
2020-Aug-05 06:20 121 21.7
2020-Aug-05 06:15 121 21.7
2020-Aug-05 06:10 121 21.7
2020-Aug-05 06:05 121 21.7
2020-Aug-05 06:00 121 21.7
2020-Aug-05 05:55 121 21.7
2020-Aug-05 05:50 121 21.7
2020-Aug-05 05:45 121 21.7
2020-Aug-05 05:40 121 22.2
2020-Aug-05 05:35 121 22.2
2020-Aug-05 05:30 121 22.2
2020-Aug-05 05:25 121 22.2
2020-Aug-05 05:20 121 22.2
2020-Aug-05 05:15 121 22.2
2020-Aug-05 05:10 121 22.2
2020-Aug-05 05:05 121 22.8
2020-Aug-05 05:00 121 22.8
2020-Aug-05 04:55 121 22.8
2020-Aug-05 04:50 121 22.8
2020-Aug-05 04:45 121 22.8
2020-Aug-05 04:40 121 22.8
2020-Aug-05 04:35 121 22.8
2020-Aug-05 04:30 121 22.8
2020-Aug-05 04:25 121 0 gusting 1 22.8
2020-Aug-05 04:20 121 0 gusting 1 22.8
2020-Aug-05 04:15 121 22.8
2020-Aug-05 04:05 121 22.8
2020-Aug-05 04:00 121 22.8
2020-Aug-05 03:55 121 0 gusting 1 22.8
2020-Aug-05 03:50 121 22.8
2020-Aug-05 03:45 121 23.3
2020-Aug-05 03:40 121 23.3
2020-Aug-05 03:35 121 23.3
2020-Aug-05 03:30 121 23.3
2020-Aug-05 03:25 121 23.3
2020-Aug-05 03:20 121 23.3
2020-Aug-05 03:15 121 23.3
2020-Aug-05 03:10 207 23.3
2020-Aug-05 03:05 207 23.3
2020-Aug-05 03:00 207 23.3
2020-Aug-05 02:55 207 23.3
2020-Aug-05 02:50 207 23.3
2020-Aug-05 02:45 207 23.3
2020-Aug-05 02:40 207 23.3
2020-Aug-05 02:34 207 23.3
2020-Aug-05 02:29 207 23.3
2020-Aug-05 02:24 207 23.3
2020-Aug-05 02:19 207 23.9
2020-Aug-05 02:14 207 23.9
2020-Aug-05 02:09 207 23.9
2020-Aug-05 02:04 207 0 gusting 2 23.9
2020-Aug-05 01:59 207 0 gusting 1 23.9
2020-Aug-05 01:54 207 0 gusting 3 23.9
2020-Aug-05 01:49 207 0 gusting 3 23.9
2020-Aug-05 01:44 187 0 gusting 2 23.9
2020-Aug-05 01:39 179 0 gusting 1 23.9
2020-Aug-05 01:34 179 0 gusting 1 23.9
2020-Aug-05 01:29 179 0 gusting 2 24.4
2020-Aug-05 01:24 190 0 gusting 2 24.4
2020-Aug-05 01:19 192 0 gusting 1 24.4
2020-Aug-05 01:14 192 0 gusting 2 24.4
2020-Aug-05 01:09 192 0 gusting 2 24.4
2020-Aug-05 01:04 192 0 gusting 1 25.0
2020-Aug-05 00:59 192 0 gusting 1 25.0
2020-Aug-05 00:54 192 0 gusting 1 25.0
2020-Aug-05 00:49 195 0 gusting 1 25.0
2020-Aug-05 00:44 195 25.6
2020-Aug-05 00:39 195 25.6
2020-Aug-05 00:34 195 0 gusting 2 25.6
2020-Aug-05 00:29 195 0 gusting 2 26.1
2020-Aug-05 00:24 196 0 gusting 1 26.1
2020-Aug-05 00:19 196 0 gusting 1 26.1
2020-Aug-05 00:14 196 0 gusting 1 26.7
2020-Aug-05 00:09 196 26.7
2020-Aug-05 00:04 196 0 gusting 2 26.7
2020-Aug-04 23:59 196 0 gusting 3 27.2
2020-Aug-04 23:54 196 0 gusting 3 27.2
2020-Aug-04 23:49 236 27.2
2020-Aug-04 23:44 253 0 gusting 2 27.8
2020-Aug-04 23:39 252 0 gusting 4 27.8
2020-Aug-04 23:34 159 1 gusting 4 27.8
2020-Aug-04 23:29 215 1 gusting 4 27.8
2020-Aug-04 23:24 269 1 gusting 5 27.8
2020-Aug-04 23:19 220 0 gusting 5 28.3
2020-Aug-04 23:14 236 0 gusting 3 28.3
2020-Aug-04 23:09 207 0 gusting 2 28.3
2020-Aug-04 23:04 197 1 gusting 2 28.9
2020-Aug-04 22:59 235 1 gusting 3 28.9
2020-Aug-04 22:54 221 1 gusting 4 28.9
2020-Aug-04 22:49 223 0 gusting 4 28.9
2020-Aug-04 22:44 043 1 gusting 5 28.9
2020-Aug-04 22:39 165 1 gusting 5 28.9
2020-Aug-04 22:34 220 1 gusting 6 29.4
2020-Aug-04 22:29 192 2 gusting 8 29.4
2020-Aug-04 22:24 200 2 gusting 8 29.4
2020-Aug-04 22:19 181 1 gusting 3 29.4
2020-Aug-04 22:14 198 1 gusting 6 29.4
2020-Aug-04 22:09 161 1 gusting 6 29.4
2020-Aug-04 22:04 213 1 gusting 5 29.4
2020-Aug-04 21:59 264 1 gusting 4 29.4
2020-Aug-04 21:54 214 1 gusting 4 29.4
2020-Aug-04 21:49 212 1 gusting 5 28.9
2020-Aug-04 21:43 181 0 gusting 5 28.9
2020-Aug-04 21:38 236 0 gusting 3 28.9
2020-Aug-04 21:33 236 0 gusting 3 28.9
2020-Aug-04 21:28 178 0 gusting 3 29.4
2020-Aug-04 21:23 157 0 gusting 4 29.4
2020-Aug-04 21:18 157 0 gusting 4 29.4
2020-Aug-04 21:13 118 0 gusting 2 30.0
2020-Aug-04 21:08 183 0 gusting 2 30.0
2020-Aug-04 20:58 184 1 gusting 6 30.6
2020-Aug-04 20:53 206 2 gusting 6 30.6
2020-Aug-04 20:48 118 2 gusting 6 31.1
2020-Aug-04 20:43 205 2 gusting 8 31.7
2020-Aug-04 20:38 199 2 gusting 8 31.7
2020-Aug-04 20:33 151 2 gusting 6 31.7
2020-Aug-04 20:28 164 2 gusting 7 31.7
2020-Aug-04 20:23 203 1 gusting 7 32.2
2020-Aug-04 20:18 323 1 gusting 6 32.2
2020-Aug-04 20:13 234 1 gusting 5 32.2
2020-Aug-04 20:08 213 1 gusting 6 32.2
2020-Aug-04 20:03 156 2 gusting 6 31.7
2020-Aug-04 19:58 217 1 gusting 6 31.7
2020-Aug-04 19:53 196 2 gusting 6 31.7
2020-Aug-04 19:48 200 2 gusting 8 31.7
2020-Aug-04 19:43 145 1 gusting 8 32.2
2020-Aug-04 19:38 197 1 gusting 4 31.7
2020-Aug-04 19:33 200 2 gusting 7 31.7
2020-Aug-04 19:28 321 2 gusting 7 31.1
2020-Aug-04 19:23 187 2 gusting 6 31.1
2020-Aug-04 19:18 214 2 gusting 6 31.7
2020-Aug-04 19:13 234 2 gusting 5 31.7
2020-Aug-04 19:08 234 1 gusting 4 32.2
2020-Aug-04 19:03 236 1 gusting 6 32.2
2020-Aug-04 18:58 199 1 gusting 6 32.2
2020-Aug-04 18:53 099 2 gusting 6 32.2
2020-Aug-04 18:48 221 1 gusting 6 32.2
2020-Aug-04 18:43 063 1 gusting 4 32.2
2020-Aug-04 18:38 200 2 gusting 7 31.7
2020-Aug-04 18:33 227 2 gusting 7 31.7
2020-Aug-04 18:28 181 1 gusting 7 32.2
2020-Aug-04 18:23 242 1 gusting 7 32.2
2020-Aug-04 18:18 057 1 gusting 4 32.2
2020-Aug-04 18:13 169 1 gusting 5 31.7
2020-Aug-04 18:08 078 1 gusting 5 31.7
2020-Aug-04 18:03 198 1 gusting 5 31.1
2020-Aug-04 17:58 205 1 gusting 7 30.6
2020-Aug-04 17:53 064 2 gusting 7 30.6
2020-Aug-04 17:48 205 1 gusting 4 30.6
2020-Aug-04 17:43 211 1 gusting 6 30.6
2020-Aug-04 17:38 186 2 gusting 6 30.6
2020-Aug-04 17:33 084 2 gusting 9 30.6
2020-Aug-04 17:28 244 1 gusting 9 30.6
2020-Aug-04 17:23 196 1 gusting 4 30.6
2020-Aug-04 17:18 051 1 gusting 6 30.6
2020-Aug-04 17:13 213 2 gusting 6 30.0
2020-Aug-04 17:08 034 1 gusting 6 30.0
2020-Aug-04 17:03 169 1 gusting 7 29.4
2020-Aug-04 16:58 040 1 gusting 7 28.9
2020-Aug-04 16:53 011 1 gusting 5 28.9
2020-Aug-04 16:48 127 2 gusting 8 28.3
2020-Aug-04 16:43 198 2 gusting 9 27.8
2020-Aug-04 16:38 319 2 gusting 9 27.8
2020-Aug-04 16:33 176 2 gusting 6 27.2
2020-Aug-04 16:28 084 1 gusting 5 27.2
2020-Aug-04 16:23 183 0 gusting 3 27.2
2020-Aug-04 16:18 238 1 gusting 3 26.7
2020-Aug-04 16:13 081 1 gusting 3 26.7
2020-Aug-04 16:08 212 0 gusting 2 26.7
2020-Aug-04 16:03 253 0 gusting 3 26.7
2020-Aug-04 15:58 249 1 gusting 6 26.1
2020-Aug-04 15:53 175 1 gusting 6 25.6
2020-Aug-04 15:48 292 1 gusting 5 25.6
2020-Aug-04 15:42 046 1 gusting 7 25.0
2020-Aug-04 15:37 275 2 gusting 7 24.4
2020-Aug-04 15:32 030 1 gusting 7 24.4
2020-Aug-04 15:27 254 1 gusting 7 24.4
2020-Aug-04 15:22 134 1 gusting 8 23.9
2020-Aug-04 15:17 182 1 gusting 8 23.3
2020-Aug-04 15:12 307 1 gusting 8 22.8
2020-Aug-04 15:07 205 1 gusting 8 22.8
2020-Aug-04 15:02 171 1 gusting 6 22.8
2020-Aug-04 14:57 206 0 gusting 6 22.8
2020-Aug-04 14:52 22.8
2020-Aug-04 14:47 198 0 gusting 4 22.2
2020-Aug-04 14:42 005 0 gusting 4 22.2
2020-Aug-04 14:37 215 0 gusting 4 22.2
2020-Aug-04 14:32 051 0 gusting 6 22.2
2020-Aug-04 14:27 235 0 gusting 6 21.7
2020-Aug-04 14:22 117 0 gusting 6 21.7
2020-Aug-04 14:17 045 0 gusting 6 21.1
2020-Aug-04 14:12 205 21.1
2020-Aug-04 14:07 336 21.1
2020-Aug-04 14:02 349 0 gusting 3 21.1
2020-Aug-04 13:57 069 0 gusting 7 20.6
2020-Aug-04 13:52 229 0 gusting 7 20.6
2020-Aug-04 13:47 009 0 gusting 4 20.6
2020-Aug-04 13:42 209 0 gusting 6 20.6
2020-Aug-04 13:37 205 0 gusting 6 20.6
2020-Aug-04 13:32 015 0 gusting 3 20.6
2020-Aug-04 13:27 242 0 gusting 4 20.6
2020-Aug-04 13:22 134 0 gusting 4 20.6
2020-Aug-04 13:17 082 0 gusting 5 20.6
2020-Aug-04 13:12 057 0 gusting 7 20.6
2020-Aug-04 13:07 033 1 gusting 7 20.6
2020-Aug-04 13:02 047 1 gusting 4 20.6
2020-Aug-04 12:57 051 1 gusting 4 20.0
2020-Aug-04 12:52 032 1 gusting 3 20.6
2020-Aug-04 12:47 152 1 gusting 8 20.6
2020-Aug-04 12:42 005 1 gusting 8 20.6
2020-Aug-04 12:37 116 1 gusting 7 20.6
2020-Aug-04 12:32 042 0 gusting 6 20.6
2020-Aug-04 12:27 355 0 gusting 4 20.0
2020-Aug-04 12:22 129 0 gusting 3 20.0
2020-Aug-04 12:17 031 0 gusting 4 20.0
2020-Aug-04 12:12 017 1 gusting 4 20.0
2020-Aug-04 12:07 049 0 gusting 3 20.0
2020-Aug-04 12:02 295 0 gusting 2 20.0
2020-Aug-04 11:57 034 0 gusting 2 19.4
2020-Aug-04 11:52 032 19.4
2020-Aug-04 11:47 034 19.4
2020-Aug-04 11:42 034 0 gusting 2 19.4
2020-Aug-04 11:37 039 0 gusting 2 19.4
2020-Aug-04 11:32 048 19.4
2020-Aug-04 11:27 052 0 gusting 6 19.4
2020-Aug-04 11:22 088 1 gusting 6 19.4
2020-Aug-04 11:17 042 1 gusting 3 19.4
2020-Aug-04 11:12 018 0 gusting 3 19.4
2020-Aug-04 11:06 032 18.9
2020-Aug-04 11:02 020 0 gusting 4 18.9
2020-Aug-04 10:56 028 0 gusting 4 19.4
2020-Aug-04 10:51 040 0 gusting 4 19.4
2020-Aug-04 10:46 209 0 gusting 4 19.4
2020-Aug-04 10:41 084 1 gusting 6 19.4
2020-Aug-04 10:36 046 1 gusting 6 20.0
2020-Aug-04 10:31 20.6
2020-Aug-04 10:26 056 0 gusting 6 20.6
2020-Aug-04 10:21 057 0 gusting 3 20.6
2020-Aug-04 10:16 011 0 gusting 3 20.6
2020-Aug-04 10:11 064 0 gusting 3 20.6
2020-Aug-04 10:06 355 20.6
2020-Aug-04 10:01 025 20.6
2020-Aug-04 09:56 025 20.6
2020-Aug-04 09:51 355 20.6
2020-Aug-04 09:46 030 21.1
2020-Aug-04 09:41 023 21.1
2020-Aug-04 09:36 063 21.1
2020-Aug-04 09:31 063 21.1
2020-Aug-04 09:26 063 21.1
2020-Aug-04 09:21 063 21.1
2020-Aug-04 09:16 063 21.1
2020-Aug-04 09:11 063 21.1
2020-Aug-04 09:06 063 21.1
2020-Aug-04 09:01 074 21.1
2020-Aug-04 08:56 074 21.1
2020-Aug-04 08:51 074 0 gusting 1 21.1
2020-Aug-04 08:46 086 21.1
2020-Aug-04 08:41 040 21.1
2020-Aug-04 08:36 040 21.1
2020-Aug-04 08:31 040 21.1
2020-Aug-04 08:26 040 21.1
2020-Aug-04 08:21 229 21.1
2020-Aug-04 08:16 229 21.1
2020-Aug-04 08:11 229 21.1
2020-Aug-04 08:06 229 21.1
2020-Aug-04 08:01 229 21.1
2020-Aug-04 07:56 229 21.1
2020-Aug-04 07:51 229 21.1
2020-Aug-04 07:46 229 21.1
2020-Aug-04 07:41 229 21.1
2020-Aug-04 07:36 229 21.1
2020-Aug-04 07:31 229 21.1
2020-Aug-04 07:26 229 21.1
2020-Aug-04 07:21 229 21.1
2020-Aug-04 07:16 229 21.1
2020-Aug-04 07:11 229 21.1
2020-Aug-04 07:06 229 21.1
2020-Aug-04 07:01 229 21.1
2020-Aug-04 06:55 229 21.1
2020-Aug-04 06:50 229 21.1
2020-Aug-04 06:45 229 21.1
2020-Aug-04 06:40 229 21.1
2020-Aug-04 06:35 229 21.1
2020-Aug-04 06:30 229 21.1
2020-Aug-04 06:25 229 21.1
2020-Aug-04 06:20 229 21.1
2020-Aug-04 06:16 229 21.1
2020-Aug-04 06:10 229 21.1
2020-Aug-04 06:06 229 21.1
2020-Aug-04 06:00 229 21.1
2020-Aug-04 05:55 229 21.1
2020-Aug-04 05:50 229 21.1
2020-Aug-04 05:45 229 21.1
2020-Aug-04 05:40 229 21.1
2020-Aug-04 05:35 229 21.1
2020-Aug-04 05:30 229 21.1
2020-Aug-04 05:25 229 21.1
2020-Aug-04 05:20 229 21.1
2020-Aug-04 05:15 229 21.1
2020-Aug-04 05:10 229 21.1
2020-Aug-04 05:05 229 21.1
2020-Aug-04 05:00 229 21.1
2020-Aug-04 04:55 229 21.1
2020-Aug-04 04:50 229 21.1
2020-Aug-04 04:45 229 21.1
2020-Aug-04 04:40 229 21.1
2020-Aug-04 04:35 229 21.1
2020-Aug-04 04:30 229 21.1
2020-Aug-04 04:25 229 21.1
2020-Aug-04 04:20 229 21.1
2020-Aug-04 04:15 229 21.1
2020-Aug-04 04:10 229 21.1
2020-Aug-04 04:05 229 21.1
2020-Aug-04 04:00 229 21.1
2020-Aug-04 03:55 229 21.1
2020-Aug-04 03:50 229 21.1
2020-Aug-04 03:45 229 21.1
2020-Aug-04 03:40 229 21.1
2020-Aug-04 03:35 229 21.1
2020-Aug-04 03:30 229 21.1
2020-Aug-04 03:25 212 21.1
2020-Aug-04 03:20 224 21.7
2020-Aug-04 03:15 174 21.7
2020-Aug-04 03:10 243 21.7
2020-Aug-04 03:05 243 21.7
2020-Aug-04 03:00 243 21.7
2020-Aug-04 02:55 243 21.7
2020-Aug-04 02:50 243 21.7
2020-Aug-04 02:45 243 21.7
2020-Aug-04 02:40 243 21.7
2020-Aug-04 02:35 243 21.7
2020-Aug-04 02:30 243 21.7
2020-Aug-04 02:25 243 21.7
2020-Aug-04 02:20 243 21.7
2020-Aug-04 02:10 244 21.7
2020-Aug-04 02:05 244 21.7
2020-Aug-04 02:00 235 21.7
2020-Aug-04 01:55 235 21.7
2020-Aug-04 01:50 171 21.7
2020-Aug-04 01:45 168 0 gusting 3 21.7
2020-Aug-04 01:39 182 21.7
2020-Aug-04 01:34 234 21.7
2020-Aug-04 01:29 256 21.7
2020-Aug-04 01:25 078 21.7
2020-Aug-04 01:19 096 0 gusting 2 21.7
2020-Aug-04 01:14 067 0 gusting 2 21.7
2020-Aug-04 01:09 189 0 gusting 4 21.7
2020-Aug-04 01:04 186 0 gusting 4 21.7